| time (UTC) | temp F | wind direction | speed MPH | gust MPH | rain 1hr in | rain 24hr in | rain mn in | humidity % | barometer mb |
| 20260503053108 | 51 | 275 | 0.0 | 0.0 | 0.00 | 0.01 | 0.01 | 97 | 1011.5 |
| 20260503052604 | 51 | 274 | 0.0 | 0.0 | 0.00 | 0.01 | 0.01 | 97 | 1011.7 |
| 20260503052101 | 51 | 251 | 1.0 | 1.0 | 0.00 | 0.01 | 0.01 | 96 | 1011.8 |
| 20260503051556 | 51 | 266 | 1.0 | 1.0 | 0.00 | 0.01 | 0.01 | 96 | 1011.7 |
| 20260503051054 | 51 | 277 | 0.0 | 0.0 | 0.00 | 0.01 | 0.01 | 96 | 1011.7 |
| 20260503050550 | 51 | 276 | 0.0 | 0.0 | 0.00 | 0.01 | 0.01 | 96 | 1011.7 |
| 20260503050047 | 51 | 281 | 0.0 | 0.0 | 0.00 | 0.01 | 0.01 | 96 | 1011.9 |
| 20260503045544 | 51 | 287 | 0.0 | 0.0 | 0.00 | 0.01 | 0.01 | 96 | 1011.8 |
| 20260503045042 | 51 | 277 | 0.0 | 0.0 | 0.00 | 0.01 | 0.01 | 96 | 1011.6 |
| 20260503044538 | 51 | 278 | 1.0 | 1.0 | 0.00 | 0.01 | 0.01 | 96 | 1011.6 |
| 20260503044036 | 51 | 286 | 0.0 | 1.0 | 0.00 | 0.01 | 0.01 | 95 | 1011.9 |
| 20260503043532 | 51 | 275 | 0.0 | 1.0 | 0.00 | 0.01 | 0.01 | 95 | 1011.6 |
| 20260503043028 | 51 | 275 | 0.0 | 1.0 | 0.00 | 0.01 | 0.01 | 95 | 1011.6 |
| 20260503042526 | 51 | 277 | 0.0 | 0.0 | 0.00 | 0.01 | 0.01 | 95 | 1011.6 |
| 20260503042021 | 51 | 273 | 2.0 | 2.0 | 0.00 | 0.01 | 0.01 | 95 | 1011.6 |
| 20260503041519 | 51 | 275 | 0.0 | 0.0 | 0.00 | 0.01 | 0.01 | 95 | 1011.5 |
| 20260503041017 | 51 | 281 | 1.0 | 1.0 | 0.00 | 0.01 | 0.01 | 95 | 1011.4 |
| 20260503040514 | 51 | 293 | 1.0 | 1.0 | 0.00 | 0.01 | 0.01 | 95 | 1011.4 |
| 20260503040011 | 51 | 277 | 1.0 | 1.0 | 0.00 | 0.01 | 0.01 | 95 | 1011.2 |
| 20260503035508 | 51 | 280 | 1.0 | 1.0 | 0.00 | 0.01 | 0.01 | 95 | 1011.2 |
| 20260503035005 | 51 | 272 | 1.0 | 2.0 | 0.00 | 0.01 | 0.01 | 95 | 1011.1 |
| 20260503034503 | 51 | 292 | 2.0 | 2.0 | 0.00 | 0.01 | 0.01 | 95 | 1011.2 |
| 20260503033959 | 51 | 271 | 1.0 | 1.0 | 0.00 | 0.01 | 0.01 | 95 | 1011.0 |
| 20260503033456 | 51 | 254 | 1.0 | 2.0 | 0.00 | 0.01 | 0.01 | 95 | 1011.0 |
| 20260503032954 | 51 | 290 | 0.0 | 0.0 | 0.00 | 0.01 | 0.01 | 95 | 1010.8 |
| 20260503032453 | 51 | 301 | 0.0 | 0.0 | 0.00 | 0.01 | 0.01 | 95 | 1010.8 |
| 20260503031950 | 51 | 299 | 0.0 | 1.0 | 0.00 | 0.01 | 0.01 | 95 | 1010.8 |
| 20260503031448 | 51 | 294 | 0.0 | 0.0 | 0.00 | 0.01 | 0.01 | 95 | 1010.7 |
| 20260503030944 | 51 | 268 | 1.0 | 1.0 | 0.00 | 0.01 | 0.01 | 94 | 1010.7 |
| 20260503030441 | 51 | 262 | 2.0 | 3.0 | 0.00 | 0.01 | 0.01 | 94 | 1010.6 |
| 20260503025938 | 51 | 286 | 0.0 | 1.0 | 0.00 | 0.01 | 0.01 | 94 | 1010.8 |
| 20260503025434 | 51 | 292 | 2.0 | 2.0 | 0.00 | 0.01 | 0.01 | 94 | 1010.7 |
| 20260503024932 | 51 | 232 | 0.0 | 1.0 | 0.00 | 0.01 | 0.01 | 94 | 1010.6 |
| 20260503024428 | 52 | 284 | 1.0 | 2.0 | 0.00 | 0.01 | 0.01 | 94 | 1010.8 |
| 20260503023926 | 52 | 271 | 1.0 | 1.0 | 0.00 | 0.01 | 0.01 | 94 | 1010.7 |
| 20260503023423 | 52 | 285 | 1.0 | 1.0 | 0.00 | 0.01 | 0.01 | 93 | 1010.7 |
| 20260503022919 | 52 | 282 | 1.0 | 2.0 | 0.00 | 0.01 | 0.01 | 93 | 1010.8 |
| 20260503022414 | 52 | 250 | 2.0 | 2.0 | 0.00 | 0.01 | 0.01 | 93 | 1010.8 |
| 20260503021910 | 52 | 281 | 1.0 | 1.0 | 0.00 | 0.01 | 0.01 | 92 | 1010.6 |
| 20260503021407 | 52 | 244 | 3.0 | 3.0 | 0.00 | 0.01 | 0.01 | 92 | 1011.1 |
| 20260503020904 | 52 | 274 | 1.0 | 2.0 | 0.00 | 0.01 | 0.01 | 92 | 1011.0 |
| 20260503020402 | 52 | 286 | 2.0 | 3.0 | 0.00 | 0.01 | 0.01 | 92 | 1010.8 |
| 20260503015858 | 52 | 271 | 1.0 | 3.0 | 0.00 | 0.01 | 0.01 | 91 | 1011.1 |
| 20260503015355 | 53 | 288 | 2.0 | 2.0 | 0.00 | 0.01 | 0.01 | 91 | 1010.7 |
| 20260503014850 | 53 | 255 | 3.0 | 5.0 | 0.00 | 0.01 | 0.01 | 90 | 1011.0 |
| 20260503014349 | 53 | 256 | 1.0 | 2.0 | 0.00 | 0.01 | 0.01 | 90 | 1011.0 |
| 20260503013846 | 53 | 309 | 1.0 | 1.0 | 0.00 | 0.01 | 0.01 | 90 | 1011.1 |
| 20260503013343 | 54 | 284 | 3.0 | 3.0 | 0.00 | 0.01 | 0.01 | 90 | 1011.0 |
| 20260503012840 | 54 | 268 | 2.0 | 2.0 | 0.00 | 0.01 | 0.01 | 90 | 1011.1 |
| 20260503012338 | 54 | 250 | 1.0 | 1.0 | 0.00 | 0.01 | 0.01 | 90 | 1011.1 |
| 20260503011834 | 54 | 290 | 1.0 | 2.0 | 0.00 | 0.01 | 0.01 | 89 | 1011.0 |
| 20260503011331 | 54 | 156 | 2.0 | 5.0 | 0.00 | 0.01 | 0.01 | 88 | 1011.0 |
| 20260503010827 | 55 | 240 | 2.0 | 2.0 | 0.00 | 0.01 | 0.01 | 88 | 1011.1 |
| 20260503010325 | 55 | 312 | 4.0 | 5.0 | 0.00 | 0.01 | 0.01 | 87 | 1011.1 |
| 20260503005821 | 55 | 223 | 2.0 | 2.0 | 0.00 | 0.01 | 0.01 | 87 | 1011.0 |
| 20260503005319 | 55 | 249 | 3.0 | 5.0 | 0.00 | 0.01 | 0.01 | 86 | 1011.1 |
| 20260503004815 | 55 | 245 | 4.0 | 5.0 | 0.00 | 0.01 | 0.01 | 87 | 1011.0 |
| 20260503004313 | 55 | 281 | 1.0 | 2.0 | 0.00 | 0.01 | 0.01 | 87 | 1011.0 |
| 20260503003810 | 55 | 177 | 3.0 | 3.0 | 0.00 | 0.01 | 0.01 | 87 | 1011.2 |
| 20260503003307 | 55 | 221 | 6.0 | 9.0 | 0.00 | 0.01 | 0.01 | 86 | 1011.0 |
| 20260503002804 | 55 | 246 | 3.0 | 5.0 | 0.00 | 0.01 | 0.01 | 87 | 1011.1 |
| 20260503002301 | 56 | 270 | 3.0 | 3.0 | 0.00 | 0.01 | 0.01 | 86 | 1011.1 |
| 20260503001757 | 56 | 243 | 3.0 | 3.0 | 0.00 | 0.01 | 0.01 | 85 | 1011.1 |
| 20260503001254 | 57 | 294 | 3.0 | 6.0 | 0.00 | 0.01 | 0.01 | 85 | 1011.0 |
| 20260503000751 | 57 | 270 | 3.0 | 5.0 | 0.00 | 0.01 | 0.01 | 83 | 1011.1 |
| 20260503000248 | 57 | 209 | 3.0 | 3.0 | 0.00 | 0.01 | 0.01 | 84 | 1011.1 |
| 20260502235745 | 57 | 269 | 1.0 | 1.0 | 0.00 | 0.01 | 0.01 | 84 | 1011.1 |
| 20260502235243 | 58 | 301 | 2.0 | 2.0 | 0.00 | 0.01 | 0.01 | 83 | 1011.4 |
| 20260502234739 | 58 | 238 | 2.0 | 3.0 | 0.00 | 0.01 | 0.01 | 82 | 1011.4 |
| 20260502234237 | 57 | 246 | 1.0 | 2.0 | 0.00 | 0.01 | 0.01 | 85 | 1011.4 |
| 20260502233732 | 56 | 194 | 4.0 | 5.0 | 0.00 | 0.01 | 0.01 | 85 | 1011.4 |
| 20260502233229 | 57 | 250 | 1.0 | 2.0 | 0.00 | 0.01 | 0.01 | 83 | 1011.6 |
| 20260502232725 | 58 | 254 | 3.0 | 3.0 | 0.00 | 0.01 | 0.01 | 83 | 1011.5 |
| 20260502232222 | 58 | 259 | 1.0 | 1.0 | 0.00 | 0.01 | 0.01 | 83 | 1011.6 |
| 20260502231719 | 58 | 250 | 1.0 | 1.0 | 0.00 | 0.01 | 0.01 | 84 | 1011.6 |
| 20260502231217 | 59 | 265 | 1.0 | 1.0 | 0.00 | 0.01 | 0.01 | 83 | 1011.6 |
| 20260502230716 | 59 | 205 | 2.0 | 5.0 | 0.00 | 0.01 | 0.01 | 82 | 1011.7 |
| 20260502230213 | 59 | 253 | 1.0 | 2.0 | 0.00 | 0.01 | 0.01 | 83 | 1011.8 |
| 20260502225709 | 59 | 112 | 1.0 | 2.0 | 0.00 | 0.01 | 0.01 | 82 | 1011.9 |
| 20260502225206 | 59 | 258 | 0.0 | 1.0 | 0.00 | 0.01 | 0.01 | 81 | 1011.8 |
| 20260502224702 | 59 | 255 | 1.0 | 1.0 | 0.00 | 0.01 | 0.01 | 82 | 1011.9 |
| 20260502224159 | 58 | 346 | 1.0 | 1.0 | 0.00 | 0.01 | 0.01 | 83 | 1011.8 |
| 20260502223657 | 57 | 240 | 1.0 | 1.0 | 0.00 | 0.01 | 0.01 | 84 | 1012.0 |
| 20260502223155 | 58 | 325 | 1.0 | 1.0 | 0.00 | 0.01 | 0.01 | 85 | 1012.0 |
| 20260502222652 | 58 | 284 | 0.0 | 0.0 | 0.00 | 0.01 | 0.01 | 84 | 1012.1 |
| 20260502222149 | 58 | 217 | 2.0 | 2.0 | 0.00 | 0.01 | 0.01 | 82 | 1012.2 |
| 20260502221644 | 57 | 274 | 0.0 | 0.0 | 0.00 | 0.01 | 0.01 | 85 | 1012.1 |
| 20260502221141 | 57 | 241 | 2.0 | 2.0 | 0.00 | 0.01 | 0.01 | 85 | 1012.3 |
| 20260502220632 | 57 | 76 | 1.0 | 1.0 | 0.00 | 0.01 | 0.01 | 87 | 1012.5 |
| 20260502220128 | 57 | 283 | 1.0 | 2.0 | 0.00 | 0.01 | 0.01 | 88 | 1012.5 |
| 20260502215625 | 57 | 268 | 1.0 | 1.0 | 0.00 | 0.01 | 0.01 | 87 | 1012.4 |
| 20260502215122 | 56 | 247 | 1.0 | 1.0 | 0.00 | 0.01 | 0.01 | 88 | 1012.4 |
| 20260502214619 | 56 | 250 | 1.0 | 2.0 | 0.00 | 0.01 | 0.01 | 88 | 1012.5 |
| 20260502214116 | 56 | 282 | 0.0 | 1.0 | 0.00 | 0.01 | 0.01 | 89 | 1012.6 |
| 20260502213614 | 55 | 263 | 1.0 | 1.0 | 0.00 | 0.01 | 0.01 | 90 | 1012.5 |
| 20260502213111 | 56 | 46 | 1.0 | 1.0 | 0.00 | 0.01 | 0.01 | 90 | 1012.6 |
| 20260502212610 | 56 | 246 | 2.0 | 2.0 | 0.00 | 0.01 | 0.01 | 90 | 1012.6 |
| 20260502212108 | 56 | 278 | 1.0 | 1.0 | 0.00 | 0.01 | 0.01 | 91 | 1012.7 |
| 20260502211603 | 56 | 271 | 2.0 | 2.0 | 0.00 | 0.01 | 0.01 | 91 | 1012.9 |
| 20260502211100 | 55 | 269 | 1.0 | 2.0 | 0.00 | 0.01 | 0.01 | 92 | 1012.9 |
| 20260502210557 | 55 | 275 | 0.0 | 0.0 | 0.00 | 0.01 | 0.01 | 92 | 1012.9 |
| 20260502210054 | 55 | 284 | 0.0 | 0.0 | 0.00 | 0.01 | 0.01 | 93 | 1012.8 |
| 20260502205550 | 55 | 246 | 3.0 | 3.0 | 0.00 | 0.01 | 0.01 | 93 | 1012.9 |
| 20260502205047 | 55 | 276 | 1.0 | 1.0 | 0.00 | 0.01 | 0.01 | 93 | 1012.8 |
| 20260502204543 | 55 | 273 | 0.0 | 0.0 | 0.00 | 0.01 | 0.01 | 93 | 1012.9 |
| 20260502204036 | 55 | 279 | 0.0 | 1.0 | 0.00 | 0.01 | 0.01 | 93 | 1012.9 |
| 20260502203533 | 55 | 293 | 0.0 | 1.0 | 0.00 | 0.01 | 0.01 | 94 | 1012.9 |
| 20260502203030 | 54 | 238 | 2.0 | 2.0 | 0.00 | 0.01 | 0.01 | 94 | 1012.8 |
| 20260502202526 | 54 | 232 | 2.0 | 3.0 | 0.00 | 0.01 | 0.01 | 94 | 1012.9 |
| 20260502202025 | 54 | 333 | 0.0 | 1.0 | 0.00 | 0.01 | 0.01 | 95 | 1013.0 |
| 20260502201520 | 54 | 268 | 2.0 | 2.0 | 0.00 | 0.01 | 0.01 | 95 | 1013.1 |
| 20260502201016 | 54 | 277 | 1.0 | 2.0 | 0.00 | 0.01 | 0.01 | 95 | 1013.0 |
| 20260502200507 | 54 | 289 | 0.0 | 0.0 | 0.00 | 0.01 | 0.01 | 96 | 1013.2 |
| 20260502200005 | 54 | 316 | 0.0 | 1.0 | 0.00 | 0.01 | 0.01 | 96 | 1013.2 |
| 20260502195502 | 53 | 281 | 1.0 | 1.0 | 0.00 | 0.01 | 0.01 | 96 | 1013.1 |
| 20260502194957 | 54 | 287 | 0.0 | 0.0 | 0.00 | 0.01 | 0.01 | 96 | 1013.1 |
| 20260502194449 | 54 | 269 | 1.0 | 1.0 | 0.00 | 0.01 | 0.01 | 96 | 1013.1 |
| 20260502193944 | 54 | 227 | 2.0 | 2.0 | 0.00 | 0.01 | 0.01 | 95 | 1013.2 |
| 20260502193437 | 55 | 268 | 1.0 | 1.0 | 0.00 | 0.01 | 0.01 | 95 | 1013.2 |
| 20260502192932 | 54 | 304 | 0.0 | 0.0 | 0.00 | 0.01 | 0.01 | 95 | 1013.1 |
| 20260502192429 | 54 | 280 | 1.0 | 1.0 | 0.00 | 0.01 | 0.01 | 96 | 1013.3 |
| 20260502191926 | 54 | 265 | 1.0 | 1.0 | 0.00 | 0.01 | 0.01 | 98 | 1013.3 |
| 20260502191424 | 54 | 277 | 1.0 | 1.0 | 0.00 | 0.01 | 0.01 | 99 | 1013.3 |
| 20260502190921 | 54 | 278 | 0.0 | 1.0 | 0.00 | 0.01 | 0.01 | 99 | 1013.4 |
| 20260502190418 | 53 | 269 | 1.0 | 1.0 | 0.00 | 0.01 | 0.01 | 99 | 1013.4 |
| 20260502185913 | 53 | 326 | 0.0 | 0.0 | 0.00 | 0.01 | 0.01 | 99 | 1013.3 |
| 20260502185409 | 53 | 303 | 0.0 | 0.0 | 0.00 | 0.01 | 0.01 | 99 | 1013.3 |
| 20260502184906 | 52 | 241 | 2.0 | 2.0 | 0.00 | 0.01 | 0.01 | 99 | 1013.5 |
| 20260502184401 | 52 | 247 | 3.0 | 3.0 | 0.00 | 0.01 | 0.01 | 99 | 1013.4 |
| 20260502183858 | 52 | 291 | 0.0 | 0.0 | 0.00 | 0.01 | 0.01 | 99 | 1013.3 |
| 20260502183354 | 52 | 356 | 0.0 | 0.0 | 0.00 | 0.01 | 0.01 | 99 | 1013.2 |
| 20260502182850 | 52 | 29 | 1.0 | 2.0 | 0.00 | 0.01 | 0.01 | 99 | 1013.2 |
| 20260502182346 | 52 | 304 | 1.0 | 1.0 | 0.00 | 0.01 | 0.01 | 99 | 1013.4 |
| 20260502181843 | 52 | 133 | 1.0 | 1.0 | 0.00 | 0.01 | 0.01 | 99 | 1013.3 |
| 20260502181342 | 52 | 311 | 0.0 | 0.0 | 0.00 | 0.01 | 0.01 | 99 | 1013.1 |
| 20260502180839 | 52 | 292 | 0.0 | 0.0 | 0.00 | 0.01 | 0.01 | 99 | 1013.1 |
| 20260502180336 | 52 | 188 | 1.0 | 1.0 | 0.00 | 0.01 | 0.01 | 99 | 1013.2 |
| 20260502170254 | 50 | 18 | 0.0 | 0.0 | 0.00 | 0.01 | 0.01 | 99 | 1013.0 |
| 20260502164237 | 50 | 33 | 1.0 | 1.0 | 0.00 | 0.01 | 0.01 | 99 | 1013.2 |
| 20260502163732 | 50 | 352 | 0.0 | 1.0 | 0.00 | 0.01 | 0.01 | 99 | 1013.0 |
| 20260502163229 | 50 | 52 | 0.0 | 0.0 | 0.00 | 0.01 | 0.01 | 99 | 1013.0 |
| 20260502162725 | 50 | 345 | 0.0 | 0.0 | 0.00 | 0.01 | 0.01 | 99 | 1013.0 |
| 20260502162222 | 51 | 314 | 0.0 | 0.0 | 0.00 | 0.01 | 0.01 | 99 | 1013.0 |
| 20260502161714 | 50 | 317 | 0.0 | 0.0 | 0.00 | 0.01 | 0.01 | 99 | 1012.9 |
| 20260502161210 | 50 | 326 | 0.0 | 0.0 | 0.00 | 0.01 | 0.01 | 99 | 1012.9 |
| 20260502160709 | 50 | 290 | 0.0 | 0.0 | 0.00 | 0.01 | 0.01 | 99 | 1013.0 |
| 20260502160208 | 50 | 280 | 0.0 | 1.0 | 0.00 | 0.01 | 0.01 | 99 | 1013.0 |
| 20260502152121 | 50 | 281 | 0.0 | 0.0 | 0.00 | 0.01 | 0.01 | 99 | 1012.5 |
| 20260502151618 | 50 | 289 | 0.0 | 0.0 | 0.00 | 0.01 | 0.01 | 99 | 1012.5 |
| 20260502151115 | 50 | 304 | 0.0 | 0.0 | 0.07 | 0.01 | 0.01 | 99 | 1012.3 |
| 20260502150613 | 50 | 16 | 1.0 | 1.0 | 0.07 | 0.01 | 0.01 | 99 | 1012.4 |
| 20260502150109 | 50 | 294 | 0.0 | 0.0 | 0.00 | 0.00 | 0.00 | 99 | 1012.5 |
| 20260502130457 | 49 | 16 | 1.0 | 1.0 | 0.00 | 0.00 | 0.00 | 99 | 1011.7 |
| 20260502123440 | 49 | 63 | 1.0 | 2.0 | 0.00 | 0.00 | 0.00 | 99 | 1011.8 |
| 20260502122937 | 49 | 50 | 0.0 | 1.0 | 0.00 | 0.00 | 0.00 | 99 | 1011.8 |
| 20260502122433 | 49 | 44 | 1.0 | 1.0 | 0.00 | 0.00 | 0.00 | 99 | 1011.8 |
| 20260502121932 | 49 | 292 | 0.0 | 0.0 | 0.00 | 0.00 | 0.00 | 99 | 1011.7 |
| 20260502121428 | 49 | 322 | 0.0 | 0.0 | 0.00 | 0.00 | 0.00 | 99 | 1011.8 |
| 20260502120926 | 49 | 262 | 1.0 | 1.0 | 0.00 | 0.00 | 0.00 | 99 | 1011.8 |
| 20260502120422 | 49 | 351 | 0.0 | 0.0 | 0.00 | 0.00 | 0.00 | 99 | 1011.6 |
| 20260502115920 | 49 | 63 | 1.0 | 2.0 | 0.00 | 0.00 | 0.00 | 99 | 1011.3 |
| 20260502115416 | 49 | 52 | 1.0 | 1.0 | 0.00 | 0.00 | 0.00 | 99 | 1011.5 |
| 20260502114912 | 49 | 355 | 0.0 | 1.0 | 0.00 | 0.00 | 0.00 | 99 | 1011.8 |
| 20260502114410 | 49 | 33 | 0.0 | 1.0 | 0.00 | 0.00 | 0.00 | 99 | 1011.6 |
| 20260502113907 | 49 | 293 | 0.0 | 1.0 | 0.00 | 0.00 | 0.00 | 99 | 1011.8 |
| 20260502113404 | 49 | 287 | 0.0 | 0.0 | 0.00 | 0.00 | 0.00 | 99 | 1012.0 |
| 20260502112903 | 49 | 22 | 0.0 | 0.0 | 0.00 | 0.00 | 0.00 | 99 | 1011.7 |
| 20260502112400 | 49 | 269 | 0.0 | 0.0 | 0.00 | 0.00 | 0.00 | 99 | 1011.7 |
| 20260502111857 | 49 | 269 | 0.0 | 0.0 | 0.00 | 0.00 | 0.00 | 99 | 1011.7 |
| 20260502111354 | 49 | 343 | 0.0 | 0.0 | 0.00 | 0.00 | 0.00 | 99 | 1011.6 |
| 20260502110851 | 49 | 26 | 0.0 | 0.0 | 0.00 | 0.00 | 0.00 | 99 | 1011.7 |
| 20260502110349 | 49 | 105 | 1.0 | 1.0 | 0.00 | 0.00 | 0.00 | 99 | 1011.7 |
| 20260502105846 | 49 | 96 | 2.0 | 2.0 | 0.00 | 0.00 | 0.00 | 99 | 1011.7 |
| 20260502105343 | 49 | 77 | 1.0 | 1.0 | 0.00 | 0.00 | 0.00 | 99 | 1011.8 |
| 20260502104841 | 49 | 77 | 1.0 | 1.0 | 0.00 | 0.00 | 0.00 | 99 | 1011.8 |
| 20260502104338 | 49 | 52 | 1.0 | 1.0 | 0.00 | 0.00 | 0.00 | 99 | 1011.8 |
| 20260502103835 | 49 | 208 | 0.0 | 1.0 | 0.00 | 0.00 | 0.00 | 99 | 1011.9 |
| 20260502103333 | 49 | 357 | 0.0 | 0.0 | 0.00 | 0.00 | 0.00 | 99 | 1012.0 |
| 20260502102830 | 50 | 38 | 0.0 | 1.0 | 0.00 | 0.00 | 0.00 | 99 | 1011.9 |
| 20260502102326 | 49 | 336 | 0.0 | 0.0 | 0.00 | 0.00 | 0.00 | 99 | 1011.7 |
| 20260502101824 | 49 | 306 | 0.0 | 0.0 | 0.00 | 0.00 | 0.00 | 99 | 1011.9 |
| 20260502101322 | 49 | 306 | 0.0 | 0.0 | 0.00 | 0.00 | 0.00 | 99 | 1011.9 |
| 20260502100820 | 49 | 323 | 0.0 | 0.0 | 0.00 | 0.00 | 0.00 | 99 | 1011.9 |
| 20260502100319 | 49 | 36 | 2.0 | 2.0 | 0.00 | 0.00 | 0.00 | 99 | 1011.8 |
| 20260502091344 | 49 | 79 | 3.0 | 3.0 | 0.00 | 0.00 | 0.00 | 99 | 1012.3 |
| 20260502090842 | 49 | 87 | 2.0 | 3.0 | 0.00 | 0.00 | 0.00 | 99 | 1012.3 |
| 20260502090338 | 49 | 23 | 1.0 | 1.0 | 0.00 | 0.00 | 0.00 | 99 | 1012.4 |
| 20260502071233 | 50 | 5 | 0.0 | 0.0 | 0.00 | 0.00 | 0.00 | 99 | 1012.5 |
| 20260502070732 | 50 | 56 | 3.0 | 5.0 | 0.00 | 0.00 | 0.00 | 99 | 1012.7 |
| 20260502070229 | 50 | 8 | 1.0 | 1.0 | 0.00 | 0.00 | 0.00 | 99 | 1012.4 |
| 20260502065727 | 50 | 48 | 1.0 | 1.0 | 0.00 | 0.00 | 0.00 | 99 | 1012.5 |
| 20260502065225 | 50 | 39 | 1.0 | 1.0 | 0.00 | 0.00 | 0.00 | 99 | 1012.5 |
| 20260502064723 | 50 | 29 | 0.0 | 1.0 | 0.00 | 0.00 | 0.00 | 99 | 1012.6 |
| 20260502064221 | 50 | 11 | 0.0 | 1.0 | 0.00 | 0.00 | 0.00 | 99 | 1012.6 |
| 20260502063718 | 50 | 31 | 1.0 | 1.0 | 0.00 | 0.00 | 0.00 | 99 | 1012.4 |
| 20260502063216 | 50 | 344 | 0.0 | 1.0 | 0.00 | 0.00 | 0.00 | 99 | 1012.5 |
| 20260502062712 | 50 | 14 | 0.0 | 1.0 | 0.00 | 0.00 | 0.00 | 99 | 1012.7 |
| 20260502062210 | 50 | 356 | 0.0 | 0.0 | 0.00 | 0.00 | 0.00 | 99 | 1012.7 |
| 20260502061709 | 50 | 5 | 0.0 | 0.0 | 0.00 | 0.00 | 0.00 | 99 | 1012.6 |
| 20260502061205 | 50 | 23 | 0.0 | 1.0 | 0.00 | 0.00 | 0.00 | 99 | 1012.6 |
| 20260502060701 | 50 | 52 | 0.0 | 1.0 | 0.00 | 0.00 | 0.00 | 99 | 1012.6 |
| 20260502060157 | 50 | 29 | 1.0 | 1.0 | 0.00 | 0.00 | 0.00 | 99 | 1012.5 |
| 20260502055655 | 50 | 32 | 1.0 | 1.0 | 0.00 | 0.00 | 0.00 | 99 | 1012.6 |
| 20260502055153 | 50 | 26 | 1.0 | 1.0 | 0.00 | 0.00 | 0.00 | 99 | 1012.7 |
| 20260502054652 | 50 | 60 | 1.0 | 2.0 | 0.00 | 0.00 | 0.00 | 99 | 1012.7 |
| 20260502054149 | 50 | 315 | 0.0 | 0.0 | 0.00 | 0.00 | 0.00 | 99 | 1012.8 |
| 20260502053646 | 50 | 356 | 0.0 | 0.0 | 0.00 | 0.00 | 0.00 | 99 | 1012.9 |